[[{"header":{"parameterUnit":"m.s-1","parameterCategory":1,"la1":30.2991,"la2":30.254,"lo1":-89.0895,"lo2":-89.0444,"dy":0.0017,"dx":0.0017,"nx":28,"ny":28,"refTime":"2024-07-17T09:00:00:Z","depth":0,"parameterNumber":2,"parameterNumberName":"U-component_of_WINDS"},"data":[0,0,0,0,0,0,0,0,0,0,0,0,0,0,0,0,0,0,0,0,0,0,0,0,0,0,0,0,0,0,0,0,0,0,0,0,0,0,0,0,0,0,0,0,0,0,0,0,0,0,0,0,0,0,0,0,0,0,0.8434,0.8434,0,0.8418,0.8417,0.8417,0.8406,0.8406,0.8405,0.8405,0.8388,0.8388,0.8387,0,0,0,0,0,0,0,0,0,0,0,0,0,0.8452,0.8452,0.8434,0.8434,0.8433,0.8418,0.8417,0.8417,0.8406,0.8406,0.8405,0.8405,0.8388,0.8388,0.8387,0,0,0,0,0,0,0,0,0,0,0,0,0,0.8441,0.8452,0.8434,0.8426,0.8425,0.8418,0.8417,0.8417,0.8406,0.8406,0.8405,0.8405,0.8388,0.8388,0.8387,0.8387,0,0,0.8386,0.8385,0,0,0,0,0,0,0,0,0.8441,0.844,0.8427,0.8426,0.8425,0.8414,0.8418,0.8407,0.8406,0.8413,0.8405,0.8405,0.8397,0.8395,0.8393,0.8386,0.8385,0.8386,0.8385,0.8385,0.8385,0,0,0,0,0,0,0,0.8442,0.8441,0.8427,0.8427,0.8426,0.8422,0.842,0.8415,0.8406,0.8412,0.8411,0.841,0.8396,0.8393,0.8392,0.8385,0.8386,0.8385,0.8385,0.8384,0.8374,0.8374,0,0,0,0,0,0,0.8444,0.8441,0.8428,0.8427,0.8433,0.8422,0.842,0.8417,0.8406,0.8404,0.841,0.8409,0.8394,0.8393,0.8392,0.8388,0.8385,0.8384,0.8384,0.8374,0.8374,0.8374,0,0,0,0,0,0,0.8445,0.8443,0.8429,0.8434,0.8432,0.8422,0.8419,0.8417,0.8414,0.8404,0.8402,0.8409,0.8394,0.8392,0.8387,0.8388,0.8384,0.8384,0.8374,0.8374,0.8374,0.8383,0,0,0,0,0,0,0.8445,0.8444,0.8444,0.8434,0.8431,0.8426,0.8419,0.8417,0.8413,0.8413,0.8402,0.8401,0.8394,0.8388,0.8387,0.8387,0.8383,0.8374,0.8374,0.8374,0.8383,0.8384,0.8384,0,0,0,0,0,0.8446,0.8448,0.8444,0.8443,0.8432,0.8426,0.8424,0.8416,0.8414,0.8413,0.8406,0.8401,0.8388,0.8388,0.8386,0.8386,0.8374,0.8374,0.8374,0.8383,0.8384,0.8384,0,0,0,0,0,0,0.8458,0.8446,0.8442,0.8441,0.8434,0.8424,0.8423,0.8418,0.8412,0.8411,0.8402,0.84,0.8395,0.839,0.839,0.8384,0.838,0.838,0.8387,0.8388,0.8389,0.839,0.8383,0,0,0,0,0,0.8461,0.8457,0.8447,0.8446,0.8443,0.8434,0.8431,0.8425,0.8418,0.8415,0.8408,0.8401,0.8395,0.8391,0.8385,0.8382,0.8379,0.8381,0.8382,0.8382,0.8382,0.8378,0.8378,0.8375,0.8375,0.8375,0,0,0.8466,0.8459,0.8457,0.8448,0.8443,0.8438,0.8432,0.8428,0.8424,0.8415,0.8409,0.8403,0.8395,0.839,0.8388,0.8386,0.8382,0.8382,0.8383,0.8382,0.8378,0.8378,0.8379,0.8375,0.8375,0.8375,0,0,0.8473,0.8468,0.8466,0.846,0.8451,0.8444,0.8444,0.8434,0.8429,0.8424,0.8416,0.8411,0.8402,0.8395,0.839,0.8392,0.8386,0.839,0.8394,0.839,0.839,0.8391,0.839,0.839,0.839,0.839,0.839,0,0.848,0.8474,0.8465,0.8461,0.8457,0.8448,0.8445,0.8439,0.8429,0.8426,0.8424,0.841,0.8404,0.8396,0.8396,0.8394,0.8392,0.8392,0.8391,0.8391,0.8391,0.839,0.839,0.8391,0.8391,0.8391,0.8391,0,0.8482,0.8478,0.8477,0.8467,0.8462,0.8459,0.8449,0.8445,0.8439,0.8433,0.8426,0.8418,0.8409,0.8407,0.8402,0.8398,0.8397,0.8393,0.8389,0.8392,0.8391,0.8391,0.8392,0.8391,0.8391,0.8391,0,0,0.8497,0.8481,0.8481,0.8475,0.8464,0.846,0.8455,0.8447,0.8443,0.8435,0.843,0.8421,0.8417,0.8412,0.8406,0.8402,0.8402,0.8399,0.8398,0.8398,0.8396,0.8398,0.8398,0.8398,0.8398,0.8398,0.8396,0,0.8501,0.8493,0.8484,0.8479,0.8473,0.8463,0.8459,0.8451,0.8444,0.8438,0.843,0.8423,0.8419,0.8415,0.8411,0.8403,0.8401,0.8403,0.8392,0.8392,0.8394,0.8398,0.8401,0.84,0.8396,0.8396,0.8396,0,0.8506,0.8498,0.8492,0.8479,0.8476,0.8473,0.8463,0.8457,0.8447,0.8442,0.8435,0.8428,0.8421,0.8418,0.8408,0.8409,0.8404,0.8399,0.8399,0.8397,0.8394,0.8395,0.8399,0.8399,0.8395,0.8395,0.8395,0,0.8515,0.8504,0.8498,0.8493,0.8479,0.8476,0.847,0.846,0.8454,0.8446,0.8442,0.8432,0.8427,0.8419,0.8409,0.8408,0.8399,0.8396,0.8394,0.8394,0.8392,0.8393,0.8395,0.839,0.839,0.839,0.839,0,0.852,0.8517,0.8502,0.8498,0.8493,0.8482,0.8477,0.847,0.846,0.8454,0.8445,0.8439,0.8427,0.8419,0.8411,0.8403,0.8401,0.8396,0.8393,0.8396,0.8397,0.8392,0.8392,0.839,0.839,0.839,0.839,0,0.8531,0.8521,0.8513,0.85,0.8496,0.8493,0.848,0.8476,0.8468,0.846,0.8457,0.8445,0.8435,0.8424,0.8411,0.8405,0.8397,0.8395,0.8401,0.8399,0.8398,0.8398,0.8397,0.8395,0.8393,0.8393,0.8393,0,0.8534,0.8531,0.8516,0.8512,0.8505,0.8498,0.8492,0.8481,0.8475,0.8462,0.8459,0.8448,0.8439,0.8424,0.8413,0.8403,0.8399,0.8399,0.8398,0.84,0.8398,0.8398,0.8397,0.84,0.84,0.84,0.84,0,0.8541,0.8536,0.8528,0.8518,0.8511,0.8503,0.8494,0.849,0.8477,0.847,0.846,0.8453,0.8439,0.8428,0.8416,0.8409,0.8402,0.8401,0.8399,0.8402,0.8405,0.8402,0.8401,0.8401,0.8401,0.8401,0.8401,0.8401,0.8547,0.8543,0.8532,0.8523,0.8515,0.8506,0.85,0.8491,0.8483,0.847,0.8464,0.8454,0.8442,0.8424,0.8417,0.8408,0.8406,0.8404,0.8404,0.8403,0.8404,0.8407,0.8406,0.8406,0.8406,0.8406,0.8406,0,0.8552,0.8544,0.8536,0.8524,0.8516,0.851,0.8499,0.8493,0.8484,0.8474,0.8465,0.8452,0.8441,0.8429,0.8417,0.8412,0.8408,0.8409,0.8409,0.8407,0.8407,0.8409,0.8412,0.8412,0.8412,0.8412,0.8412,0.8412,0.8554,0.8546,0.854,0.8527,0.8519,0.8508,0.8502,0.8494,0.8485,0.8472,0.8462,0.8454,0.8443,0.8429,0.8419,0.8415,0.8411,0.8412,0.8408,0.8408,0.8407,0.8407,0.8408,0.8411,0.8411,0.8408,0.8408,0.8408]},{"header":{"parameterUnit":"m.s-1","parameterCategory":1,"la1":30.2991,"la2":30.254,"lo1":-89.0895,"lo2":-89.0444,"dy":0.0017,"dx":0.0017,"nx":28,"ny":28,"refTime":"2024-07-17T09:00:00:Z","depth":0,"parameterNumber":3,"parameterNumberName":"V-component_of_WINDS"},"data":[0,0,0,0,0,0,0,0,0,0,0,0,0,0,0,0,0,0,0,0,0,0,0,0,0,0,0,0,0,0,0,0,0,0,0,0,0,0,0,0,0,0,0,0,0,0,0,0,0,0,0,0,0,0,0,0,0,0,5.615,5.6151,0,5.6174,5.6174,5.6174,5.6096,5.6094,5.6091,5.6089,5.611,5.6113,5.6115,0,0,0,0,0,0,0,0,0,0,0,0,0,5.6034,5.6037,5.615,5.6151,5.6151,5.6174,5.6174,5.6174,5.6096,5.6094,5.6091,5.6088,5.6109,5.6112,5.6116,0,0,0,0,0,0,0,0,0,0,0,0,0,5.6074,5.6038,5.615,5.6115,5.6112,5.6174,5.6174,5.6174,5.6097,5.6094,5.609,5.6087,5.6108,5.6112,5.6116,5.6212,0,0,5.6129,5.613,0,0,0,0,0,0,0,0,5.6072,5.6078,5.612,5.6118,5.6114,5.6128,5.614,5.6187,5.6098,5.6103,5.6089,5.6085,5.6119,5.6122,5.6134,5.6213,5.6214,5.6129,5.6131,5.6133,5.6134,0,0,0,0,0,0,0,5.6069,5.6077,5.6159,5.6121,5.6117,5.6096,5.6098,5.6149,5.613,5.6102,5.6096,5.61,5.6116,5.613,5.6134,5.6214,5.6129,5.6132,5.6135,5.6137,5.637,5.6374,0,0,0,0,0,0,5.6071,5.6075,5.6159,5.616,5.6084,5.6101,5.6103,5.6127,5.6129,5.6126,5.6103,5.6097,5.6125,5.6129,5.6134,5.6244,5.6133,5.6137,5.6139,5.6366,5.6371,5.6375,0,0,0,0,0,0,5.6069,5.608,5.6158,5.6116,5.6124,5.6107,5.6135,5.613,5.6143,5.613,5.6126,5.6121,5.6122,5.6128,5.6193,5.6244,5.6139,5.6143,5.6362,5.6368,5.6373,5.6467,0,0,0,0,0,0,5.6066,5.6079,5.6117,5.6118,5.6127,5.6218,5.6138,5.6133,5.6151,5.6142,5.6146,5.6143,5.612,5.6187,5.6197,5.6248,5.6146,5.6357,5.6365,5.6371,5.6459,5.6475,5.6489,0,0,0,0,0,5.6062,5.6142,5.6119,5.613,5.6174,5.6221,5.6226,5.6199,5.6155,5.6192,5.6183,5.6143,5.6237,5.6194,5.6205,5.6258,5.6354,5.6362,5.6371,5.6452,5.6472,5.6488,0,0,0,0,0,0,5.6147,5.6142,5.6116,5.6199,5.6211,5.6207,5.6253,5.6221,5.6244,5.6235,5.62,5.6201,5.6271,5.6271,5.6223,5.6349,5.6288,5.6299,5.6346,5.6365,5.6379,5.6377,5.6149,0,0,0,0,0,5.6175,5.6216,5.6208,5.6282,5.6289,5.627,5.629,5.6268,5.6278,5.6283,5.6279,5.629,5.6322,5.6344,5.6373,5.6459,5.6458,5.6501,5.6516,5.6528,5.6537,5.658,5.6599,5.6403,5.6402,5.6402,0,0,5.6234,5.6236,5.6264,5.6299,5.6306,5.6346,5.6275,5.6321,5.635,5.629,5.635,5.6348,5.6357,5.6433,5.6466,5.6435,5.6591,5.6538,5.6548,5.6551,5.6591,5.661,5.6626,5.6408,5.6407,5.6406,0,0,5.6361,5.6368,5.6429,5.6437,5.6449,5.6435,5.645,5.6452,5.6448,5.6508,5.6463,5.6496,5.6553,5.6561,5.6573,5.6702,5.6665,5.6713,5.6789,5.6832,5.6847,5.6861,5.6905,5.6921,5.6722,5.6722,5.6723,0,5.6433,5.6493,5.6464,5.6513,5.6529,5.6477,5.6537,5.6546,5.6566,5.6577,5.6543,5.6611,5.6614,5.669,5.6721,5.6733,5.6747,5.6711,5.6848,5.6861,5.6873,5.6914,5.6931,5.6728,5.6727,5.6727,5.6726,0,5.6579,5.6622,5.6669,5.669,5.6711,5.6766,5.6743,5.6768,5.6744,5.6734,5.6795,5.6797,5.6824,5.6841,5.6818,5.6913,5.6893,5.6854,5.6791,5.6898,5.6936,5.6952,5.6736,5.6734,5.6732,5.6731,0,0,5.676,5.6764,5.6781,5.6789,5.6798,5.6829,5.688,5.6908,5.6929,5.6944,5.6985,5.7034,5.6997,5.701,5.6988,5.7026,5.7125,5.6981,5.6981,5.7006,5.7227,5.7255,5.7274,5.7102,5.7105,5.7107,5.7226,0,5.6883,5.6972,5.6946,5.7034,5.7072,5.7022,5.7067,5.7076,5.7068,5.7097,5.7088,5.7122,5.7072,5.7079,5.7115,5.7106,5.7169,5.7097,5.7137,5.7139,5.7134,5.7295,5.7325,5.7437,5.7241,5.7243,5.7245,0,5.7039,5.706,5.7152,5.7153,5.7167,5.7208,5.723,5.726,5.7268,5.7259,5.7274,5.7244,5.7292,5.7231,5.7296,5.7248,5.7263,5.7261,5.7265,5.7265,5.7197,5.7298,5.7472,5.7488,5.7269,5.7267,5.7265,0,5.7158,5.7211,5.7272,5.728,5.7283,5.7312,5.7314,5.732,5.7337,5.7356,5.7367,5.7392,5.7405,5.7424,5.74,5.7358,5.7468,5.7406,5.7461,5.7461,5.7484,5.7483,5.7661,5.7498,5.7498,5.7498,5.7497,0,5.7297,5.7355,5.7325,5.7363,5.7425,5.7395,5.7457,5.7453,5.7459,5.7493,5.7452,5.7485,5.7453,5.7483,5.7465,5.752,5.7527,5.752,5.7514,5.7523,5.7523,5.753,5.7521,5.7502,5.7501,5.75,5.7499,0,5.7441,5.7424,5.7486,5.7484,5.7484,5.753,5.7527,5.7561,5.755,5.7594,5.7602,5.7585,5.7618,5.7596,5.763,5.7617,5.769,5.7674,5.7687,5.7682,5.7737,5.7731,5.7925,5.7947,5.7772,5.7773,5.7775,0,5.753,5.7573,5.7575,5.7595,5.76,5.7634,5.7651,5.7623,5.7643,5.7656,5.7687,5.7717,5.7739,5.7793,5.7783,5.7808,5.7791,5.7857,5.7794,5.7801,5.7789,5.7786,5.7789,5.7869,5.7871,5.7873,5.7874,0,5.7689,5.7677,5.7705,5.7729,5.7751,5.7769,5.7783,5.7802,5.7773,5.7797,5.7831,5.7848,5.7881,5.791,5.7931,5.7932,5.7898,5.7894,5.7908,5.7916,5.792,5.7916,5.7719,5.7889,5.7888,5.7887,5.7886,5.7885,5.7806,5.7841,5.7847,5.7878,5.7886,5.79,5.7931,5.7923,5.7951,5.7976,5.7958,5.7997,5.8003,5.8027,5.8032,5.8062,5.8034,5.8055,5.806,5.8065,5.8071,5.7918,5.8065,5.8065,5.8065,5.8064,5.8064,0,5.796,5.7962,5.7991,5.8012,5.8036,5.8003,5.8016,5.8038,5.8073,5.8082,5.8105,5.8142,5.817,5.8162,5.8186,5.8211,5.8196,5.8218,5.8215,5.8215,5.8095,5.808,5.823,5.823,5.823,5.823,5.823,5.823,5.8043,5.81,5.809,5.8149,5.815,5.8188,5.8199,5.821,5.8217,5.8261,5.8284,5.8279,5.828,5.8304,5.8328,5.8324,5.8334,5.8362,5.8353,5.8241,5.8224,5.8208,5.8194,5.8365,5.8365,5.847,5.8471,5.8472]}]]